Flag for Brazil Weather past 2 weeks in Belém, Para, Brazil

Now
88 °F

Partly sunny.


Feels Like: 93 °F
Forecast: 75 / 87 °F
Wind: 12 mph from Southeast

Location: Belem Aeroporto

Current Time: Jul 22, 2014 at 3:32:25 PM

Latest Report: Jul 22, 2014 at 2:00 PM


Visibility: N/A

Pressure: 29.92 "Hg

Humidity: 55%

Dew point: 70 °F

Location of BelémLocation

Historic Weather in Belém — Graph

°F

Belém temperature yesterday

Maximum temperature yesterday: 90 °F (at 2:00 PM)
Minimum temperature yesterday: 73 °F (at 4:00 AM)
Average temperature yesterday: 80 °F

Past Weeks' High & Low Weather Summary

 TemperatureHumidityPressure
High90 °F (Jul 7, 3:00 PM)100% (Jul 9, 7:00 PM)30.07 "Hg (Jul 9, 7:00 PM)
Low39 °F (Jul 12, 7:00 PM)49% (Jul 7, 5:00 PM)29.83 "Hg (Jul 9, 3:00 PM)
Average79 °F82%29.95 "Hg
* Reported Jul 7 2:00 PM — Jul 22 2:00 PM, Belém, Weather by CustomWeather, © 2014

Note: Actual official high and low records may vary slightly from our data, if they occured in-between our weather recording intervals... More about our weather records

Advertising

Belém weather history for previous 24 hours

 ConditionsComfort  
Time TempWeatherWind HumidityBarometerVisibility
2:00 PM
Jul 22
88 °FPartly sunny.12 mph55%29.92 "HgN/A
1:00 PM88 °FPartly sunny.8 mph62%29.95 "HgN/A
12:00 PM88 °FPartly sunny.13 mph62%29.98 "HgN/A
11:00 AM84 °FPartly sunny.13 mph70%29.98 "HgN/A
10:00 AM84 °FPartly sunny.8 mph74%29.98 "HgN/A
9:00 AM82 °FScattered clouds.12 mph79%29.98 "HgN/A
8:00 AM79 °FPassing clouds.7 mph84%29.98 "HgN/A
7:00 AM75 °FPassing clouds.5 mph94%29.95 "HgN/A
6:00 AM75 °FClear.3 mph89%29.95 "Hg10 mi
5:00 AM75 °FClear.3 mph89%29.92 "Hg10 mi
4:00 AM75 °FPassing clouds.6 mph94%29.92 "HgN/A
3:00 AM75 °FClear.7 mph94%29.92 "Hg10 mi
2:00 AM77 °FPassing clouds.10 mph89%29.95 "HgN/A
1:00 AM77 °FPassing clouds.7 mph89%29.95 "HgN/A
12:00 AM77 °FPassing clouds.9 mph89%29.98 "HgN/A
11:00 PM
Jul 21
77 °FClear.9 mph89%29.98 "Hg10 mi
10:00 PM77 °FPassing clouds.6 mph89%29.98 "HgN/A
9:00 PM79 °FPassing clouds.10 mph84%30.01 "HgN/A
8:00 PM79 °FPassing clouds.5 mph84%29.92 "HgN/A
7:00 PM81 °FPassing clouds.8 mph79%29.92 "HgN/A
6:00 PM82 °FScattered clouds.12 mph74%29.89 "HgN/A
5:00 PM82 °FPartly sunny.10 mph74%29.89 "HgN/A
4:00 PM82 °FPartly sunny.6 mph79%29.89 "HgN/A
3:00 PM88 °FPartly sunny.8 mph59%29.89 "HgN/A
Weather by CustomWeather, © 2014

See weather overviewHow to use our weather pages